Location: *
(50.5492°N, 7.7469°E)
Time: 19:58:49
(UTC+00:00)

STARLINK-52 - Pass Details

Date: 21 October 2019
Orbit: 443 x 445 km, 53.0° (Epoch: 19 November)

Event Time Altitude Azimuth Distance (km) Brightness Sun altitude
Rises 16:59:38 0° 288° (WNW) 2,441 8.2 -6.1°
Reaches altitude 10° 17:01:46 10° 290° (WNW) 1,569 7.1 -6.4°
Maximum altitude 17:05:18 82° 18° (NNE) 455 3.2 -7.0°
Drops below altitude 10° 17:08:49 10° 106° (ESE) 1,566 5.4 -7.5°
Enters shadow 17:09:11 - 106° (ESE) 1,715 5.6 -7.6°
